Location: *
(48.4333°N, 5.0333°W)
Time: 03:27:46
(UTC+00:00)

SJ-6B - Pass Details

Date: 09 April 2020
Orbit: 509 x 582 km, 97.6° (Epoch: 29 May)

Event Time Altitude Azimuth Distance (km) Brightness Sun altitude
Exits shadow 20:15:00 - 175° (S) 2,751 6.1 -12.0°
Reaches altitude 10° 20:17:05 10° 179° (S) 1,895 5.3 -12.3°
Maximum altitude 20:21:10 60° 259° (W) 673 3.5 -12.9°
Drops below altitude 10° 20:25:16 10° 340° (NNW) 1,910 6.3 -13.5°
Sets 20:27:27 0° 344° (NNW) 2,810 7.2 -13.8°
